Change the Weather History Date:

Saturday, December 31, 2011

  Actual Average Record
Temperature  
Mean Temperature 8 °F -  
Max Temperature 9 °F 31 °F 48 °F (2001)
Min Temperature 6 °F 23 °F -2 °F (1949)
Degree Days  
Heating Degree Days 58    
Moisture  
Dew Point 1 °F    
Average Humidity 72    
Maximum Humidity 80    
Minimum Humidity 63    
Precipitation  
Precipitation 0.00 in - - ()
Sea Level Pressure  
Sea Level Pressure 29.84 in    
Wind  
Wind Speed 12 mph (NNE)    
Max Wind Speed 20 mph    
Max Gust Speed 33 mph    
Visibility 4 miles    
Events Snow    
Averages and records for this station are not official NWS values.
T = Trace of Precipitation, MM = Missing Value Source: NWS Daily Summary

Daily Weather History Graph

Daily Weather History Graph

Search for Another Location

Airport or City:

Trip Planner

Search our weather history database for the weather conditions in past years. The results will help you decide how hot, cold, wet, or windy it might be!

Date:

Astronomy

Dec. 31, 2011 Rise Set
Actual Time 10:01 AM AKST 4:00 PM AKST
Civil Twilight 9:04 AM AKST 4:57 PM AKST
Nautical Twilight 8:07 AM AKST 5:54 PM AKST
Astronomical Twilight 7:16 AM AKST 6:45 PM AKST
Moon 11:44 AM AKST (12/31) 12:43 AM AKST (12/31)
Length of Visible Light 7h 53m
Length of Day
5h 58m
Waxing Crescent, 46% of the Moon is Illuminated
Dec 31
Waxing Crescent
Dec 31
First Quarter
Jan 8
Full
Jan 16
Last Quarter
Jan 22
New

Hourly Weather History & Observations

Time (AKST) Temp. Windchill Dew Point Humidity Pressure Visibility Wind Dir Wind Speed Gust Speed Precip Events Conditions
12:53 AM 6.1 °F -12.2 °F -4.0 °F 63% 29.63 in 10.0 mi NNE 16.1 mph - N/A   Scattered Clouds
1:53 AM 7.0 °F -8.3 °F -2.9 °F 64% 29.66 in 10.0 mi NNE 11.5 mph 18.4 mph N/A   Overcast
3:53 AM 7.0 °F -6.6 °F -2.0 °F 67% 29.70 in 8.0 mi North 9.2 mph - N/A   Overcast
4:53 AM 8.1 °F -7.0 °F -2.0 °F 64% 29.71 in 10.0 mi North 11.5 mph 21.9 mph 0.00 in   Overcast
5:53 AM 8.1 °F -8.4 °F -2.0 °F 64% 29.73 in 10.0 mi NNE 13.8 mph 20.7 mph 0.00 in   Overcast
6:53 AM 8.1 °F -7.0 °F -0.9 °F 67% 29.75 in 10.0 mi NNE 11.5 mph 17.3 mph 0.00 in   Overcast
7:48 AM 8.6 °F -7.0 °F -0.4 °F 67% 29.76 in 4.0 mi North 12.7 mph 21.9 mph 0.00 in Snow Light Snow
7:53 AM 8.1 °F -7.7 °F -0.9 °F 67% 29.77 in 3.0 mi North 12.7 mph 21.9 mph 0.00 in Snow Light Snow
8:08 AM 8.6 °F -7.0 °F -0.4 °F 67% 29.77 in 1.8 mi North 12.7 mph 19.6 mph 0.00 in Snow Light Snow
8:14 AM 8.6 °F -7.7 °F -0.4 °F 67% 29.77 in 1.0 mi North 13.8 mph 20.7 mph 0.00 in Snow Light Snow
8:24 AM 8.6 °F -6.3 °F 1.4 °F 73% 29.78 in 1.0 mi North 11.5 mph 19.6 mph 0.00 in Snow Light Snow
8:38 AM 8.6 °F -4.7 °F 1.4 °F 73% 29.79 in 0.8 mi NNE 9.2 mph 18.4 mph 0.00 in Snow Light Snow
8:53 AM 8.1 °F -7.0 °F 1.9 °F 76% 29.80 in 1.2 mi NNE 11.5 mph 18.4 mph 0.00 in Snow Light Snow
9:04 AM 8.6 °F -6.3 °F 1.4 °F 73% 29.81 in 2.5 mi NNE 11.5 mph - 0.00 in Snow Light Snow
9:09 AM 8.6 °F -5.5 °F 1.4 °F 73% 29.81 in 3.0 mi North 10.4 mph - 0.00 in Snow Light Snow
9:25 AM 8.6 °F -7.0 °F 1.4 °F 73% 29.82 in 2.0 mi NNE 12.7 mph 19.6 mph 0.00 in Snow Light Snow
9:40 AM 8.6 °F -5.5 °F 1.4 °F 73% 29.82 in 4.0 mi North 10.4 mph 19.6 mph 0.00 in Snow Light Snow
9:53 AM 8.1 °F -6.2 °F 1.0 °F 73% 29.83 in 3.0 mi North 10.4 mph - 0.00 in Snow Light Snow
10:12 AM 8.6 °F -3.7 °F 1.4 °F 73% 29.83 in 1.8 mi NNE 8.1 mph - 0.00 in Snow Light Snow
10:22 AM 8.6 °F -5.5 °F 1.4 °F 73% 29.84 in 2.5 mi NNE 10.4 mph 18.4 mph 0.00 in Snow Light Snow
10:29 AM 8.6 °F -5.5 °F 1.4 °F 73% 29.84 in 6.0 mi NNE 10.4 mph 18.4 mph 0.00 in Snow Light Snow
10:53 AM 8.1 °F -7.0 °F 1.0 °F 73% 29.85 in 5.0 mi NNE 11.5 mph - 0.00 in Snow Light Snow
11:25 AM 8.6 °F -4.7 °F 1.4 °F 73% 29.86 in 1.8 mi NNE 9.2 mph - 0.00 in Snow Light Snow
11:40 AM 8.6 °F -5.5 °F 1.4 °F 73% 29.86 in 1.2 mi NNE 10.4 mph - 0.00 in Snow Light Snow
11:53 AM 8.1 °F -6.2 °F 3.0 °F 80% 29.86 in 1.2 mi North 10.4 mph - 0.00 in Snow Light Snow
12:05 PM 8.6 °F -2.6 °F 1.4 °F 73% 29.86 in 2.5 mi NNE 6.9 mph - 0.00 in Snow Light Snow
12:12 PM 8.6 °F -3.7 °F 1.4 °F 73% 29.87 in 3.0 mi North 8.1 mph - 0.00 in Snow Light Snow
12:23 PM 8.6 °F -3.7 °F 1.4 °F 73% 29.87 in 2.0 mi NNE 8.1 mph - 0.00 in Snow Light Snow
12:30 PM 8.6 °F -5.5 °F 1.4 °F 73% 29.87 in 1.5 mi North 10.4 mph - 0.00 in Snow Light Snow
12:37 PM 8.6 °F -6.3 °F 1.4 °F 73% 29.87 in 1.0 mi North 11.5 mph - 0.00 in Snow Light Snow
12:53 PM 8.1 °F -6.2 °F 3.0 °F 80% 29.88 in 1.5 mi North 10.4 mph - 0.00 in Snow Light Snow
1:00 PM 8.6 °F -7.7 °F 1.4 °F 73% 29.87 in 2.5 mi North 13.8 mph - 0.00 in Snow Light Snow
1:08 PM 8.6 °F -4.7 °F 1.4 °F 73% 29.88 in 4.0 mi North 9.2 mph - 0.00 in Snow Light Snow
1:53 PM 8.1 °F -4.3 °F 1.9 °F 76% 29.88 in 4.0 mi NNE 8.1 mph - 0.00 in Snow Light Snow
2:06 PM 8.6 °F -4.7 °F 3.2 °F 79% 29.88 in 4.0 mi North 9.2 mph - 0.00 in Snow Light Snow
2:20 PM 8.6 °F -3.7 °F 3.2 °F 79% 29.89 in 1.8 mi North 8.1 mph - 0.00 in Snow Light Snow
2:26 PM 8.6 °F -6.3 °F 3.2 °F 79% 29.88 in 1.0 mi North 11.5 mph - 0.00 in Snow Light Snow
2:33 PM 8.6 °F -6.3 °F 3.2 °F 79% 29.89 in 0.8 mi North 11.5 mph - 0.00 in Snow Light Snow
2:41 PM 8.6 °F -6.3 °F 3.2 °F 79% 29.89 in 1.2 mi North 11.5 mph - 0.00 in Snow Light Snow
2:46 PM 8.6 °F -6.3 °F 3.2 °F 79% 29.89 in 2.5 mi North 11.5 mph - 0.00 in Snow Light Snow
2:53 PM 9.0 °F -4.2 °F 1.9 °F 73% 29.89 in 4.0 mi North 9.2 mph - 0.00 in Snow Light Snow
3:25 PM 8.6 °F -6.3 °F 1.4 °F 73% 29.89 in 2.5 mi North 11.5 mph - 0.00 in Snow Light Snow
3:31 PM 8.6 °F -6.3 °F 1.4 °F 73% 29.89 in 1.8 mi North 11.5 mph - 0.00 in Snow Light Snow
3:41 PM 8.6 °F -5.5 °F 1.4 °F 73% 29.90 in 3.0 mi North 10.4 mph - 0.00 in Snow Light Snow
3:53 PM 9.0 °F -7.9 °F 1.9 °F 73% 29.90 in 9.0 mi North 15.0 mph 19.6 mph 0.00 in   Overcast
4:53 PM 9.0 °F -5.9 °F -0.0 °F 67% 29.90 in 10.0 mi North 11.5 mph - 0.00 in   Overcast
5:53 PM 9.0 °F -7.9 °F -0.0 °F 67% 29.90 in 10.0 mi North 15.0 mph - 0.00 in   Overcast
6:53 PM 9.0 °F -9.0 °F -0.0 °F 67% 29.90 in 10.0 mi North 17.3 mph 24.2 mph N/A   Overcast
7:53 PM 9.0 °F -8.5 °F -0.9 °F 64% 29.90 in 10.0 mi North 16.1 mph 23.0 mph N/A   Overcast
8:53 PM 9.0 °F -6.6 °F -0.9 °F 64% 29.89 in 10.0 mi NNE 12.7 mph 24.2 mph N/A   Overcast
9:53 PM 8.1 °F -10.2 °F -2.0 °F 64% 29.87 in 10.0 mi NNE 17.3 mph 26.5 mph N/A   Mostly Cloudy
10:53 PM 8.1 °F -9.6 °F -0.9 °F 67% 29.85 in 10.0 mi NNE 16.1 mph 24.2 mph N/A   Clear
11:53 PM 8.1 °F -11.2 °F -2.0 °F 64% 29.83 in 10.0 mi NNE 19.6 mph 33.4 mph N/A   Mostly Cloudy